Location: Colebrook
(42.0017°N, 73.0973°W)
Time: 04:18:08
(UTC-04:00)

Courier 1B Rocket - Visible Passes

Search period start: 21 October 2021 00:00
Search period end: 31 October 2021 00:00
Orbit: 920 x 1202 km, 28.2° (Epoch: 20 October)

Date Brightness Start Highest point End Pass type
(mag) Time Alt. Az. Time Alt. Az. Time Alt. Az.
21 Oct 6.5 18:58:59 10° SW 19:03:43 23° S 19:08:27 10° SE visible
21 Oct 6.8 20:52:12 10° SW 20:55:16 17° SSW 20:55:16 17° SSW visible
22 Oct 6.6 19:51:03 10° SW 19:55:27 20° S 19:58:03 16° SSE visible
23 Oct 6.7 18:50:03 10° SW 18:54:44 22° S 18:59:22 10° SE visible
23 Oct 7.0 20:44:07 10° SW 20:47:05 14° SSW 20:47:13 14° SSW visible
24 Oct 6.9 19:42:32 10° SW 19:46:25 17° SSW 19:50:05 11° SSE visible
25 Oct 6.9 18:41:15 10° SW 18:45:43 20° S 18:50:07 10° SE visible
26 Oct 7.1 19:34:24 10° SW 19:37:21 14° SSW 19:40:15 10° S visible
27 Oct 7.1 18:32:40 10° SW 18:36:39 17° SSW 18:40:35 10° SSE visible
29 Oct 7.3 18:24:27 10° SW 18:27:33 14° SSW 18:30:37 10° S visible
